�N����,����,�~����,�C��,���x,�C��,����,���ϕ���,�ő�u�ԕ���,�ő厞����,���˗�,�I�_���x,�n�����x,�ő啗���N��,DTYPE
"18/05/21","00:10",0.0,14.2,87.6,1014.9,274.5,1.2,2.4,298.9,0.00,12.2,18.6,"00:09:44",1
"18/05/21","00:20",0.0,14.3,87.6,1014.2,310.8,1.5,2.6,335.4,0.00,12.3,18.6,"00:19:44",1
"18/05/21","00:30",0.0,14.3,87.5,1014.9,296.2,1.2,2.7,329.8,0.00,12.3,18.4,"00:20:16",1
"18/05/21","00:40",0.0,14.1,87.9,1014.7,287.5,1.1,1.4,313.5,0.00,12.2,18.5,"00:32:40",1
"18/05/21","00:50",0.0,14.1,88.2,1014.7,284.5,1.1,2.4,310.3,0.00,12.2,18.7,"00:47:44",1
"18/05/21","01:00",0.0,14.1,88.2,1014.9,284.6,1.1,1.8,306.8,0.00,12.2,18.6,"00:51:20",1
"18/05/21","01:10",0.0,14.2,88.0,1015.2,301.2,1.2,2.6,293.5,0.00,12.3,18.4,"01:02:16",1
"18/05/21","01:20",0.0,14.3,87.6,1014.7,307.1,1.5,2.1,317.0,0.00,12.3,18.2,"01:12:56",1
"18/05/21","01:30",0.0,14.2,87.6,1014.7,295.4,1.3,2.1,315.5,0.00,12.2,18.2,"01:27:04",1
"18/05/21","01:40",0.0,14.1,88.0,1014.7,298.4,1.2,2.1,314.6,0.00,12.2,18.3,"01:31:20",1
"18/05/21","01:50",0.0,14.0,88.0,1015.2,293.6,1.2,2.4,308.0,0.00,12.1,18.2,"01:40:02",1
"18/05/21","02:00",0.0,14.0,88.2,1014.9,300.3,1.3,2.2,298.0,0.00,12.1,18.1,"01:56:16",1
"18/05/21","02:10",0.0,13.9,88.2,1014.9,292.5,1.2,2.5,311.7,0.00,12.0,18.1,"02:01:12",1
"18/05/21","02:20",0.0,13.9,88.5,1014.9,293.4,1.6,4.2,332.0,0.00,12.1,18.0,"02:19:44",1
"18/05/21","02:30",0.0,14.0,88.3,1015.2,323.7,1.8,3.4,328.0,0.00,12.1,18.1,"02:21:04",1
"18/05/21","02:40",0.0,14.0,88.4,1014.9,307.6,1.6,2.2,325.6,0.00,12.2,18.0,"02:31:52",1
"18/05/21","02:50",0.0,13.9,88.4,1014.5,281.0,1.0,2.4,303.5,0.00,12.1,18.0,"02:40:56",1
"18/05/21","03:00",0.0,13.7,88.6,1014.5,297.4,1.2,1.9,308.4,0.00,11.9,17.8,"02:56:48",1
"18/05/21","03:10",0.0,13.7,89.1,1014.2,297.8,1.1,1.6,304.8,0.00,12.0,17.8,"03:02:32",1
"18/05/21","03:20",0.0,13.7,89.3,1014.2,269.4,1.0,1.3,272.9,0.00,12.0,17.8,"03:15:52",1
"18/05/21","03:30",0.0,13.6,89.6,1014.2,283.0,1.1,1.8,264.3,0.00,12.0,17.8,"03:20:08",1
"18/05/21","03:40",0.0,13.6,89.6,1014.7,302.7,1.1,2.0,336.8,0.00,12.0,17.7,"03:39:44",1
"18/05/21","03:50",0.0,13.8,89.3,1014.5,315.7,1.3,2.2,328.3,0.00,12.1,17.7,"03:40:40",1
"18/05/21","04:00",0.0,13.6,89.7,1014.2,272.7,1.2,1.8,260.2,0.00,12.0,17.7,"03:56:32",1
"18/05/21","04:10",0.0,13.5,89.7,1014.7,292.5,1.3,3.1,341.9,0.00,11.9,17.8,"04:09:44",1
"18/05/21","04:20",0.0,13.5,89.4,1014.7,308.6,1.6,3.4,331.3,0.00,11.8,17.7,"04:10:24",1
"18/05/21","04:30",0.0,13.4,89.7,1014.5,293.4,1.2,1.9,301.3,0.00,11.8,17.7,"04:24:16",1
"18/05/21","04:40",0.0,13.2,90.4,1014.5,288.9,1.0,1.6,248.1,0.00,11.7,17.5,"04:33:04",1
"18/05/21","04:50",0.0,13.2,90.6,1014.5,291.4,1.1,1.4,309.5,0.00,11.7,17.7,"04:40:02",1
"18/05/21","05:00",0.0,13.1,90.8,1014.2,297.4,1.1,2.1,323.3,0.00,11.7,17.6,"04:52:56",1
"18/05/21","05:10",0.0,13.1,90.8,1014.0,278.8,1.0,1.6,264.9,0.00,11.7,17.4,"05:03:20",1
"18/05/21","05:20",0.0,13.1,90.9,1014.2,291.5,1.0,1.9,321.8,0.00,11.7,17.5,"05:12:16",1
"18/05/21","05:30",0.0,13.2,90.9,1014.7,291.7,1.0,1.7,313.9,0.00,11.8,17.4,"05:28:24",1
"18/05/21","05:40",0.0,13.3,90.8,1014.9,300.7,1.2,2.0,310.1,0.00,11.9,17.3,"05:32:48",1
"18/05/21","05:50",0.0,13.4,90.8,1015.2,296.2,1.1,2.0,326.7,0.00,12.0,17.5,"05:46:08",1
"18/05/21","06:00",0.0,13.6,90.5,1015.2,286.7,1.0,2.0,326.7,0.01,12.1,17.2,"05:58:56",1
"18/05/21","06:10",0.0,13.9,90.2,1015.4,320.5,1.2,2.0,317.2,0.02,12.4,17.3,"06:00:56",1
"18/05/21","06:20",0.0,14.0,90.6,1015.2,305.6,1.1,1.4,310.9,0.03,12.5,17.3,"06:10:24",1
"18/05/21","06:30",0.0,14.2,90.3,1015.2,296.3,0.6,1.1,309.8,0.03,12.7,17.5,"06:29:04",1
"18/05/21","06:40",0.0,14.4,90.5,1015.9,293.5,1.0,1.6,319.4,0.03,12.9,17.2,"06:32:00",1
"18/05/21","06:50",0.0,14.7,89.9,1015.6,295.7,1.2,1.9,318.3,0.05,13.1,17.4,"06:49:12",1
"18/05/21","07:00",0.0,16.3,86.0,1015.9,279.5,0.7,1.8,236.8,0.13,14.0,17.2,"06:58:16",1
"18/05/21","07:10",0.0,17.6,79.9,1015.9,281.4,0.5,1.6,239.2,0.17,14.1,17.7,"07:04:08",1
"18/05/21","07:20",0.0,17.6,79.2,1016.1,263.1,0.2,0.9,115.4,0.13,14.0,17.6,"07:18:40",1
"18/05/21","07:30",0.0,17.6,76.5,1016.1,95.1,0.3,1.1,107.9,0.13,13.5,17.6,"07:24:56",1
"18/05/21","07:40",0.0,18.1,73.8,1016.1,277.3,0.5,1.4,328.9,0.14,13.4,17.5,"07:38:24",1
"18/05/21","07:50",0.0,18.8,73.0,1015.9,273.6,0.3,1.0,261.6,0.18,13.9,17.6,"07:45:04",1
"18/05/21","08:00",0.0,19.1,73.5,1016.4,22.6,0.7,2.8,340.2,0.24,14.3,17.9,"07:55:52",1
"18/05/21","08:10",0.0,19.3,68.6,1016.1,344.9,0.6,1.1,56.8,0.30,13.4,17.9,"08:01:12",1
"18/05/21","08:20",0.0,19.7,66.6,1016.1,259.3,0.7,1.4,317.3,0.32,13.4,18.0,"08:17:12",1
"18/05/21","08:30",0.0,20.5,65.9,1015.6,163.8,1.2,3.1,114.3,0.35,14.0,18.2,"08:29:52",1
"18/05/21","08:40",0.0,20.9,63.1,1016.1,125.8,1.6,3.6,144.9,0.37,13.7,18.4,"08:38:08",1
"18/05/21","08:50",0.0,21.0,61.4,1015.6,103.8,1.1,2.5,53.6,0.38,13.3,18.6,"08:45:04",1
"18/05/21","09:00",0.0,21.3,62.2,1015.2,128.8,1.3,3.1,157.0,0.39,13.8,18.8,"08:59:28",1
"18/05/21","09:10",0.0,21.5,61.8,1015.2,134.6,1.6,3.7,121.9,0.41,13.9,19.2,"09:03:04",1
"18/05/21","09:20",0.0,22.0,56.7,1014.9,99.2,1.1,3.2,103.9,0.45,13.1,19.0,"09:13:12",1
"18/05/21","09:30",0.0,22.3,56.5,1014.9,105.4,1.3,2.9,39.5,0.47,13.3,19.4,"09:20:40",1
"18/05/21","09:40",0.0,22.3,55.8,1014.7,135.5,1.5,3.5,109.9,0.48,13.1,19.6,"09:36:48",1
"18/05/21","09:50",0.0,22.4,54.8,1014.7,118.4,2.1,4.1,94.6,0.50,12.9,19.8,"09:49:20",1
"18/05/21","10:00",0.0,22.8,55.6,1014.2,104.5,1.2,2.8,132.1,0.52,13.5,20.0,"09:51:28",1
"18/05/21","10:10",0.0,23.0,50.0,1014.0,111.4,1.7,3.3,79.3,0.53,12.1,20.0,"10:05:04",1
"18/05/21","10:20",0.0,23.5,52.4,1014.0,94.1,1.5,3.9,137.2,0.54,13.2,20.5,"10:16:32",1
"18/05/21","10:30",0.0,23.4,52.1,1013.8,153.3,1.7,2.8,153.1,0.56,13.1,20.7,"10:26:24",1
"18/05/21","10:40",0.0,23.2,48.3,1013.3,130.7,2.2,5.8,107.3,0.57,11.7,20.9,"10:32:56",1
"18/05/21","10:50",0.0,23.8,47.2,1013.3,123.8,2.1,4.3,130.3,0.58,11.9,21.2,"10:40:02",1
"18/05/21","11:00",0.0,24.0,47.3,1012.8,134.4,2.0,4.9,125.0,0.60,12.1,21.4,"10:53:44",1
"18/05/21","11:10",0.0,24.6,41.6,1013.0,114.2,1.8,3.7,119.1,0.60,10.7,21.5,"11:06:04",1
"18/05/21","11:20",0.0,24.7,43.1,1013.0,147.9,2.3,4.5,158.4,0.55,11.4,21.9,"11:18:08",1
"18/05/21","11:30",0.0,24.7,43.5,1012.8,151.8,2.2,4.8,148.9,0.61,11.5,22.1,"11:23:12",1
"18/05/21","11:40",0.0,24.8,44.4,1012.3,172.1,2.8,5.5,211.3,0.57,11.9,22.4,"11:38:08",1
"18/05/21","11:50",0.0,25.1,42.2,1012.3,131.4,2.3,5.6,142.5,0.57,11.4,22.6,"11:41:44",1
"18/05/21","12:00",0.0,25.3,44.6,1012.1,132.8,1.7,3.9,196.3,0.60,12.4,22.7,"11:57:36",1
"18/05/21","12:10",0.0,25.3,44.7,1012.6,105.3,1.7,4.3,113.4,0.64,12.5,22.8,"12:00:16",1
"18/05/21","12:20",0.0,25.3,44.7,1012.1,130.9,2.2,4.0,120.7,0.65,12.5,23.0,"12:15:52",1
"18/05/21","12:30",0.0,25.9,45.0,1012.1,115.0,2.2,4.4,124.2,0.60,13.1,23.2,"12:25:04",1
"18/05/21","12:40",0.0,25.8,44.8,1012.1,139.9,2.5,5.8,134.9,0.64,12.9,23.4,"12:31:28",1
"18/05/21","12:50",0.0,25.5,39.4,1011.9,136.6,2.3,7.0,199.7,0.62,10.7,23.5,"12:48:40",1
"18/05/21","13:00",0.0,25.6,40.7,1011.4,156.5,2.8,5.1,155.6,0.59,11.3,23.3,"12:52:08",1
"18/05/21","13:10",0.0,25.9,39.2,1011.6,147.2,2.5,5.2,123.9,0.60,11.0,23.6,"13:01:12",1
"18/05/21","13:20",0.0,25.8,42.5,1011.9,164.0,2.6,5.1,204.8,0.59,12.1,23.4,"13:17:44",1
"18/05/21","13:30",0.0,26.4,38.3,1011.4,149.3,2.7,5.7,182.3,0.58,11.1,23.5,"13:25:52",1
"18/05/21","13:40",0.0,26.1,35.2,1011.6,165.2,2.3,6.8,154.8,0.57,9.6,23.3,"13:37:44",1
"18/05/21","13:50",0.0,26.3,34.4,1011.4,144.6,2.2,3.9,111.7,0.57,9.4,23.3,"13:43:52",1
"18/05/21","14:00",0.0,26.7,37.2,1011.6,133.6,2.0,3.9,163.6,0.55,10.9,23.2,"13:53:20",1
"18/05/21","14:10",0.0,26.7,33.4,1011.4,117.6,1.7,3.2,147.2,0.54,9.3,23.4,"14:00:32",1
"18/05/21","14:20",0.0,26.7,32.4,1011.2,95.4,1.8,4.4,111.5,0.52,8.9,23.5,"14:10:40",1
"18/05/21","14:30",0.0,27.0,33.2,1011.2,96.0,2.0,4.3,87.8,0.51,9.5,23.5,"14:29:52",1
"18/05/21","14:40",0.0,26.7,36.1,1010.9,133.5,2.3,5.0,174.2,0.49,10.5,23.7,"14:37:20",1
"18/05/21","14:50",0.0,26.9,29.9,1010.7,135.4,2.7,6.6,148.8,0.48,7.9,23.7,"14:46:08",1
"18/05/21","15:00",0.0,27.0,26.3,1010.2,108.2,2.2,5.9,126.3,0.46,6.1,23.7,"14:50:56",1
"18/05/21","15:10",0.0,26.8,29.0,1010.0,135.8,2.6,5.5,119.7,0.44,7.3,23.9,"15:06:08",1
"18/05/21","15:20",0.0,26.8,27.0,1009.7,111.0,2.5,5.5,143.8,0.42,6.3,23.9,"15:18:08",1
"18/05/21","15:30",0.0,26.6,25.7,1009.7,128.0,2.2,5.6,116.3,0.40,5.4,23.8,"15:29:04",1
"18/05/21","15:40",0.0,27.1,24.5,1010.2,114.0,1.8,4.9,118.0,0.38,5.1,23.8,"15:30:32",1
"18/05/21","15:50",0.0,27.2,25.7,1010.0,111.3,2.0,4.1,145.6,0.37,5.9,23.9,"15:45:04",1
"18/05/21","16:00",0.0,27.1,24.5,1010.2,105.7,2.5,4.9,119.0,0.35,5.1,23.9,"15:59:20",1
"18/05/21","16:10",0.0,27.1,24.1,1010.0,115.1,2.3,5.0,58.8,0.32,4.9,23.7,"16:03:44",1
"18/05/21","16:20",0.0,26.9,21.6,1010.0,139.5,2.5,5.5,121.4,0.29,3.2,23.7,"16:17:28",1
"18/05/21","16:30",0.0,26.6,22.7,1010.4,159.8,2.7,6.7,167.4,0.27,3.6,23.8,"16:25:44",1
"18/05/21","16:40",0.0,26.5,22.5,1010.2,146.9,3.0,6.0,125.8,0.24,3.4,23.6,"16:36:48",1
"18/05/21","16:50",0.0,26.3,20.7,1010.4,132.9,3.1,5.9,145.7,0.22,2.1,23.5,"16:44:08",1
"18/05/21","17:00",0.0,26.3,21.1,1010.0,127.5,2.6,6.2,104.3,0.19,2.4,23.5,"16:52:00",1
"18/05/21","17:10",0.0,26.1,23.1,1010.2,124.5,2.6,4.9,124.2,0.16,3.5,23.5,"17:05:52",1
"18/05/21","17:20",0.0,26.0,24.5,1010.2,117.6,2.3,5.2,132.4,0.03,4.2,23.2,"17:15:12",1
"18/05/21","17:30",0.0,26.0,26.0,1010.2,122.1,1.8,5.1,104.3,0.01,5.1,23.3,"17:23:36",1
"18/05/21","17:40",0.0,25.6,25.4,1010.4,122.0,2.2,4.7,150.0,0.01,4.4,23.1,"17:39:44",1
"18/05/21","17:50",0.0,25.2,25.6,1010.7,127.3,2.5,6.4,115.4,0.01,4.2,23.0,"17:46:00",1
"18/05/21","18:00",0.0,24.8,26.5,1010.2,138.5,2.2,4.4,119.3,0.00,4.3,22.7,"17:50:48",1
"18/05/21","18:10",0.0,24.7,28.9,1010.9,127.2,1.6,3.4,111.0,0.00,5.5,22.5,"18:07:04",1
"18/05/21","18:20",0.0,24.3,30.2,1010.2,152.3,2.0,3.7,163.1,0.00,5.8,22.7,"18:10:02",1
"18/05/21","18:30",0.0,23.8,30.6,1010.7,150.2,2.3,5.1,132.6,0.00,5.5,22.4,"18:28:08",1
"18/05/21","18:40",0.0,23.6,30.4,1010.9,157.3,2.6,5.0,128.0,0.00,5.3,22.3,"18:39:28",1
"18/05/21","18:50",0.0,23.3,27.1,1011.2,137.6,2.0,4.3,137.2,0.00,3.4,22.2,"18:44:48",1
"18/05/21","19:00",0.0,23.2,26.8,1011.4,133.6,1.7,4.2,125.7,0.00,3.1,21.9,"18:57:28",1
"18/05/21","19:10",0.0,22.9,27.7,1011.2,122.9,1.6,3.6,99.2,0.00,3.3,21.8,"19:02:48",1
"18/05/21","19:20",0.0,22.5,29.5,1011.4,128.3,1.2,3.4,154.5,0.00,3.9,21.6,"19:10:24",1
"18/05/21","19:30",0.0,22.1,29.9,1011.6,147.4,1.5,4.1,138.1,0.00,3.7,21.6,"19:27:28",1
"18/05/21","19:40",0.0,22.0,33.1,1011.9,129.6,1.0,3.5,164.5,0.00,5.1,21.5,"19:33:28",1
"18/05/21","19:50",0.0,20.9,39.5,1011.9,237.9,0.7,1.8,110.7,0.00,6.7,21.3,"19:40:32",1
"18/05/21","20:00",0.0,20.0,40.0,1011.9,317.8,1.3,2.2,325.8,0.00,6.0,21.1,"19:58:24",1
"18/05/21","20:10",0.0,19.1,41.5,1012.6,288.9,1.1,2.0,333.0,0.00,5.8,20.7,"20:08:16",1
"18/05/21","20:20",0.0,18.4,45.9,1012.8,313.7,1.3,2.1,340.8,0.00,6.6,20.9,"20:18:32",1
"18/05/21","20:30",0.0,17.7,48.4,1013.0,300.1,1.1,2.0,307.0,0.00,6.7,20.9,"20:29:36",1
"18/05/21","20:40",0.0,17.2,51.3,1013.0,308.0,1.0,2.2,317.5,0.00,7.1,20.7,"20:30:32",1
"18/05/21","20:50",0.0,16.9,52.5,1013.0,293.9,1.1,1.8,305.0,0.00,7.2,20.5,"20:40:16",1
"18/05/21","21:00",0.0,16.3,55.6,1013.3,286.4,0.8,1.1,299.1,0.00,7.5,20.4,"20:52:32",1
"18/05/21","21:10",0.0,15.9,57.4,1013.3,297.8,0.8,1.6,330.7,0.00,7.5,20.3,"21:05:52",1
"18/05/21","21:20",0.0,15.8,58.3,1013.5,293.7,1.0,2.0,320.6,0.00,7.7,20.1,"21:19:04",1
"18/05/21","21:30",0.0,15.6,57.4,1013.3,288.2,1.0,1.2,304.2,0.00,7.3,20.0,"21:20:08",1
"18/05/21","21:40",0.0,15.3,59.4,1013.8,298.2,1.1,1.7,324.9,0.00,7.5,19.9,"21:31:28",1
"18/05/21","21:50",0.0,15.2,59.7,1013.5,292.3,1.0,1.4,302.5,0.00,7.5,19.7,"21:46:24",1
"18/05/21","22:00",0.0,15.3,60.7,1014.0,278.8,1.0,1.6,263.7,0.00,7.8,19.5,"21:55:28",1
"18/05/21","22:10",0.0,15.3,60.4,1013.8,290.2,1.1,1.9,313.5,0.00,7.7,19.4,"22:01:36",1
"18/05/21","22:20",0.0,15.2,60.8,1013.5,294.5,1.1,1.8,289.2,0.00,7.7,19.3,"22:16:40",1
"18/05/21","22:30",0.0,14.9,62.8,1013.8,295.6,1.1,1.4,309.7,0.00,7.9,19.2,"22:25:52",1
"18/05/21","22:40",0.0,14.9,63.1,1013.5,291.5,1.1,1.6,303.4,0.00,8.0,19.1,"22:38:00",1
"18/05/21","22:50",0.0,14.6,64.5,1013.8,313.0,1.2,1.8,322.1,0.00,8.0,18.9,"22:48:24",1
"18/05/21","23:00",0.0,13.9,68.6,1013.3,314.1,1.3,1.6,307.8,0.00,8.3,18.9,"22:51:12",1
"18/05/21","23:10",0.0,13.7,70.4,1013.3,320.0,1.2,1.8,328.1,0.00,8.5,18.8,"23:09:12",1
"18/05/21","23:20",0.0,13.3,72.2,1013.0,315.6,1.5,1.8,318.1,0.00,8.4,18.8,"23:15:34",1
"18/05/21","23:30",0.0,13.1,75.6,1013.5,321.6,1.7,2.1,314.3,0.00,8.9,18.7,"23:26:04",1
"18/05/21","23:40",0.0,12.8,77.3,1013.0,319.0,1.7,2.0,322.8,0.00,9.0,18.4,"23:31:36",1
"18/05/21","23:50",0.0,12.2,80.7,1013.3,302.0,1.1,1.7,311.1,0.00,9.0,18.3,"23:48:22",1
"18/05/21","24:00",0.0,12.0,79.2,1013.3,299.4,1.1,1.9,317.9,0.00,8.6,18.4,"23:59:50",1
